FW1036 Weather Reports


Display with metric or nautical units.
time (UTC)temp
F
wind
direction
speed
MPH
gust
MPH
rain 1hr
in
rain 24hr
in
rain mn
in
humidity
%
barometer
mb
20260903083012 67 30 1.0 3.0 0.00 0.41 0.00 93 1011.1
20260903081529 67 30 1.0 3.0 0.00 0.41 0.00 93 1011.0
20260903080009 68 323 0.0 1.0 0.00 0.41 0.00 94 1011.1
20260903074509 68 323 0.0 1.0 0.00 0.41 0.00 93 1011.0
20260903073009 68 14 0.0 2.0 0.00 0.41 0.00 93 1010.9
20260903071512 68 14 0.0 1.0 0.00 0.41 0.00 93 1010.8
20260903070006 68 14 0.0 1.0 0.00 0.41 0.00 93 1010.8
20260903064505 68 14 0.0 2.0 0.00 0.41 0.00 93 1010.8
20260903063004 68 14 0.0 0.0 0.00 0.41 0.00 93 1011.0
20260903061504 68 14 0.0 0.0 0.00 0.41 0.00 93 1011.3
20260903054558 68 256 0.0 0.0 0.00 0.41 0.00 93 1011.3
20260903053058 68 256 0.0 0.0 0.00 0.41 0.00 93 1011.3
20260903051555 69 256 0.0 0.0 0.00 0.41 0.00 93 1010.9
20260903050051 69 256 0.0 3.0 0.00 0.41 0.00 93 1010.7
20260903044553 69 236 0.0 0.0 0.00 0.41 0.00 93 1010.3
20260903043049 69 236 0.0 0.0 0.00 0.41 0.00 93 1010.3
20260903041547 69 231 0.0 3.0 0.00 0.41 0.00 93 1010.4
20260903040044 69 245 1.0 3.0 0.00 0.41 0.00 93 1010.4
20260903034542 69 274 0.0 0.0 0.00 0.41 0.41 93 1010.1
20260903033042 69 275 0.0 0.0 0.00 0.41 0.41 93 1009.9
20260903031543 69 274 0.0 0.0 0.00 0.41 0.41 93 1009.7
20260903030041 69 274 1.0 4.0 0.00 0.41 0.41 93 1009.6
20260903024541 69 273 0.0 0.0 0.00 0.41 0.41 92 1009.9
20260903023056 69 273 0.0 0.0 0.00 0.41 0.41 92 1010.4
20260903021545 69 273 0.0 0.0 0.00 0.41 0.41 92 1010.4
20260903020037 69 273 0.0 0.0 0.00 0.41 0.41 92 1010.4
20260903014536 69 273 0.0 0.0 0.00 0.41 0.41 92 1010.2
20260903013039 69 273 0.0 0.0 0.01 0.41 0.41 92 1010.3
20260903011535 70 273 0.0 0.0 0.01 0.41 0.41 92 1010.3
20260903010034 70 273 0.0 2.0 0.01 0.41 0.41 92 1010.2
20260903004534 70 273 0.0 2.0 0.06 0.41 0.41 92 1010.0
20260903003034 70 269 1.0 2.0 0.12 0.40 0.40 91 1010.0
20260903001534 71 213 0.0 6.0 0.12 0.40 0.40 91 1009.7
20260903000031 71 278 0.0 3.0 0.12 0.40 0.40 91 1009.8
20260902234529 72 186 4.0 7.0 0.05 0.33 0.33 91 1010.5
20260902233026 72 223 0.0 2.0 0.00 0.28 0.28 91 1009.6
20260902231530 72 223 0.0 2.0 0.00 0.28 0.28 90 1009.6
20260902230016 71 225 1.0 5.0 0.00 0.28 0.28 91 1010.4
20260902224514 71 165 3.0 8.0 0.01 0.28 0.28 91 1010.2
20260902223012 70 165 5.0 14.0 0.05 0.28 0.28 91 1010.1
20260902221517 70 13 0.0 1.0 0.05 0.28 0.28 91 1009.4
20260902220010 70 19 1.0 4.0 0.05 0.28 0.28 90 1009.3
20260902214512 70 214 2.0 7.0 0.04 0.27 0.27 89 1009.8
20260902213008 70 355 0.0 4.0 0.00 0.23 0.23 90 1009.7
20260902211506 70 327 1.0 4.0 0.23 0.23 0.23 90 1009.7
20260902210004 68 260 1.0 3.0 0.23 0.23 0.23 90 1009.6
20260902204600 68 317 1.0 5.0 0.23 0.23 0.23 89 1009.6
20260902203104 67 338 1.0 9.0 0.23 0.23 0.23 89 1009.9
20260902200021 85 281 5.0 10.0 0.00 0.00 0.00 74 1010.3
20260902194523 86 252 2.0 8.0 0.00 0.00 0.00 72 1009.5
20260902193015 88 274 3.0 10.0 0.00 0.00 0.00 71 1009.5
20260902191518 87 270 1.0 9.0 0.00 0.00 0.00 72 1009.7
20260902190012 86 267 1.0 9.0 0.00 0.00 0.00 72 1009.8
20260902184512 87 195 1.0 9.0 0.00 0.00 0.00 71 1009.8
20260902183010 87 190 1.0 5.0 0.00 0.00 0.00 69 1009.9
20260902181611 87 259 3.0 9.0 0.00 0.00 0.00 69 1010.0
20260902180008 86 199 3.0 8.0 0.00 0.00 0.00 69 1009.9
20260902174507 87 252 3.0 8.0 0.00 0.00 0.00 69 1009.9
20260902173003 87 196 1.0 10.0 0.00 0.00 0.00 72 1010.4
20260902171502 86 205 2.0 8.0 0.00 0.00 0.00 68 1010.8
20260902170059 86 144 3.0 8.0 0.00 0.00 0.00 71 1011.0
20260902164559 85 288 1.0 6.0 0.00 0.00 0.00 72 1011.5
20260902163055 84 276 4.0 9.0 0.00 0.00 0.00 70 1011.7
20260902161557 85 215 3.0 8.0 0.00 0.00 0.00 71 1011.8
20260902160055 84 311 5.0 10.0 0.00 0.00 0.00 73 1011.9
20260902154604 83 299 3.0 10.0 0.00 0.00 0.00 76 1012.1
20260902153042 81 265 2.0 9.0 0.00 0.00 0.00 79 1012.0
20260902151540 82 276 2.0 8.0 0.00 0.00 0.00 78 1011.8
20260902150037 83 308 3.0 9.0 0.00 0.00 0.00 78 1011.5
20260902144534 82 260 2.0 8.0 0.00 0.00 0.00 79 1011.4
20260902143031 82 265 1.0 8.0 0.00 0.00 0.00 79 1011.4
20260902141527 81 296 1.0 6.0 0.00 0.00 0.00 81 1011.3
20260902140023 80 230 0.0 3.0 0.00 0.00 0.00 84 1011.0
20260902134519 78 262 0.0 4.0 0.00 0.00 0.00 87 1011.3
20260902133016 77 250 1.0 5.0 0.00 0.00 0.00 88 1011.4
20260902131512 75 257 0.0 3.0 0.00 0.00 0.00 90 1011.4
20260902130008 75 252 1.0 3.0 0.00 0.00 0.00 90 1011.3
20260902124509 74 243 0.0 4.0 0.00 0.00 0.00 90 1011.1
20260902123006 74 165 0.0 4.0 0.00 0.00 0.00 91 1011.0
20260902121504 73 278 0.0 2.0 0.00 0.00 0.00 91 1010.8
20260902120002 73 281 0.0 1.0 0.00 0.00 0.00 91 1010.9
20260902114619 73 266 0.0 0.0 0.00 0.00 0.00 92 1010.9
20260902113107 72 266 0.0 0.0 0.00 0.00 0.00 92 1010.9
20260902111601 72 266 0.0 0.0 0.00 0.00 0.00 92 1011.0
20260902110055 71 266 0.0 0.0 0.00 0.00 0.00 92 1011.2
20260902104556 71 266 0.0 2.0 0.00 0.00 0.00 92 1011.0
20260902103106 71 211 0.0 1.0 0.00 0.00 0.00 92 1010.9
20260902101554 71 211 0.0 1.0 0.00 0.00 0.00 92 1010.9
20260902100119 72 211 0.0 0.0 0.00 0.00 0.00 92 1010.7
20260902094611 72 211 0.0 1.0 0.00 0.00 0.00 92 1010.8
20260902093109 72 211 0.0 0.0 0.00 0.00 0.00 92 1010.9
20260902091549 72 211 0.0 1.0 0.00 0.00 0.00 92 1010.9
20260902090049 73 211 0.0 0.0 0.00 0.00 0.00 92 1010.8
20260902084547 73 211 0.0 0.0 0.00 0.00 0.00 92 1010.9